Wind_Speed
15 15 14 14 14 14 14 13 13 12 13 13 12 12 12 13 13 12 12 12 12 12 12 12 12 12 12 13 14 15 16 17 17 12 7 4 4 4 3 2 1 3 5 4 1 0 1 5 6 3 4 2 1 1 0 1 1 2 3 2 0 1 2 3 4 2 2 3 5 6 3 1 7 4 3 3 2 3 4 4 4 4 3 2 3 19 32 33
15 15 15 15 14 14 14 14 13 13 12 13 12 12 12 12 13 13 12 12 12 12 12 12 12 12 12 12 13 13 15 16 14 11 7 4 5 6 5 3 3 5 5 3 1 1 4 3 3 3 4 1 1 1 0 1 1 2 2 1 2 4 3 4 4 2 3 3 5 7 4 2 5 3 3 4 4 4 4 5 4 5 2 5 7 17 25 25
16 16 16 15 15 15 15 14 13 13 12 12 12 12 12 12 13 13 13 12 11 11 11 12 12 12 12 12 12 12 14 12 8 6 3 4 5 4 3 1 5 6 5 3 1 2 4 3 2 3 4 2 1 1 1 1 1 2 2 1 4 5 4 4 4 5 5 4 5 7 4 3 3 2 1 3 6 6 4 5 3 6 4 7 9 9 14 21
16 17 17 16 16 15 15 15 14 13 13 12 12 13 12 13 12 13 13 12 11 11 11 11 11 12 11 11 10 10 10 5 3 2 2 4 4 4 3 2 5 7 5 3 3 4 4 4 3 3 4 1 3 1 0 2 2 2 3 4 5 4 3 5 6 6 6 3 4 5 4 5 3 1 1 1 5 6 4 4 4 6 5 7 9 5 8 17
17 18 18 18 17 16 15 15 14 13 13 12 13 13 12 12 12 12 12 12 11 10 11 10 11 11 10 10 8 8 6 3 1 2 2 3 4 5 4 4 7 9 7 5 4 4 5 4 4 4 3 1 2 2 2 3 2 2 2 5 5 3 3 7 6 6 5 3 3 4 4 5 2 2 4 4 3 5 3 4 6 6 4 1 3 7 9 11
18 18 18 19 18 17 16 15 14 14 13 13 13 13 13 12 12 12 12 11 11 10 10 9 10 10 9 9 5 3 3 1 4 1 4 5 6 6 6 6 9 10 8 6 4 5 5 5 4 3 2 1 0 1 3 3 2 2 3 4 6 5 4 5 4 5 5 4 3 4 3 3 2 3 2 4 5 6 4 5 7 6 4 1 1 6 12 13
18 19 19 19 19 18 16 15 14 14 13 13 13 13 13 12 12 12 11 11 10 10 10 9 9 8 8 6 1 1 2 4 7 4 6 8 8 7 7 7 9 9 8 6 4 4 3 3 2 2 2 2 1 2 2 2 0 2 3 4 6 5 5 4 3 3 3 4 5 3 2 3 3 3 2 2 6 7 6 6 5 7 5 2 3 8 13 19
18 19 19 20 19 18 16 15 14 14 13 13 13 13 13 12 12 11 11 11 10 9 9 8 8 5 5 4 1 2 0 5 5 8 10 11 10 8 7 7 8 8 8 6 4 4 2 1 2 3 1 2 2 2 1 3 2 3 4 3 3 3 4 5 4 5 3 3 5 3 5 5 3 1 1 5 6 6 5 4 4 6 5 2 5 9 11 14
18 19 20 20 20 19 17 15 14 14 13 13 13 13 13 12 11 11 10 10 9 8 8 7 6 2 2 2 2 3 3 3 4 11 13 12 11 9 7 7 9 8 7 5 4 5 2 2 3 2 2 2 2 2 1 2 2 4 4 3 2 4 5 4 3 3 2 3 2 3 7 4 2 3 2 3 4 5 4 2 3 5 4 2 2 9 11 12
19 19 20 21 21 19 17 15 14 14 13 13 13 13 13 12 11 10 9 9 8 7 7 5 4 1 1 2 2 2 3 2 7 14 14 13 12 11 9 7 9 10 6 4 5 5 4 4 2 1 3 2 2 2 0 2 2 4 3 3 4 5 5 1 2 4 2 4 2 2 7 4 2 2 2 3 3 3 4 3 3 5 6 4 3 7 11 13
19 19 20 21 21 20 18 16 14 13 13 13 13 13 13 13 11 9 9 9 7 6 6 3 1 1 0 1 2 2 3 2 11 15 14 14 12 11 10 8 9 10 6 3 5 8 8 7 2 1 1 1 2 1 2 3 2 2 1 4 5 5 6 4 5 5 2 3 3 4 4 4 2 1 3 5 3 3 4 4 5 5 5 4 1 8 8 9
21 20 21 22 22 21 18 16 13 12 13 13 13 13 13 12 10 9 8 8 7 5 3 0 2 3 1 1 4 6 5 3 12 16 14 14 11 9 9 7 7 8 7 4 5 9 9 9 3 1 2 1 1 2 2 2 1 2 3 4 7 7 6 4 4 3 4 2 2 3 3 4 3 4 5 5 2 2 4 4 6 4 4 5 2 7 6 6
23 22 22 22 22 21 18 15 13 12 12 12 13 13 12 11 10 9 7 7 6 3 2 2 4 4 1 2 4 4 5 6 12 17 15 15 10 8 9 8 8 6 6 7 9 9 7 9 6 3 2 2 1 2 1 2 2 2 2 2 4 7 6 4 2 2 2 1 1 2 1 4 5 7 5 5 3 3 5 5 5 3 3 3 2 5 3 4
24 24 23 24 23 21 19 15 13 12 12 13 13 13 12 11 9 8 6 6 4 1 2 4 5 4 1 4 4 3 6 7 13 19 17 17 11 6 9 9 7 5 6 9 13 12 8 8 7 2 1 1 2 2 3 5 3 2 2 2 3 3 4 5 2 2 1 1 4 5 1 4 6 6 5 5 3 3 3 4 5 3 4 4 2 10 4 2
24 24 24 24 24 22 19 16 14 12 12 13 12 12 11 10 8 6 5 3 0 2 4 6 4 3 0 5 5 3 7 6 13 22 18 18 14 5 8 9 5 3 5 8 12 12 8 2 6 1 2 1 3 3 4 4 3 3 2 3 3 1 4 8 4 2 2 2 5 5 1 4 6 5 5 4 3 2 2 3 4 3 5 5 7 12 5 3
24 25 25 25 24 23 20 16 14 12 12 12 11 10 8 6 4 3 2 2 4 5 7 5 2 3 1 4 1 0 6 7 11 20 19 18 16 4 3 8 3 1 4 5 5 6 5 2 3 1 1 1 4 3 3 4 3 3 2 2 3 2 3 6 5 2 1 1 5 5 1 3 5 4 5 5 4 3 3 3 4 5 6 7 9 10 6 5
23 25 25 25 25 23 20 17 14 12 12 10 8 5 3 1 2 2 3 5 5 6 7 2 1 2 1 1 1 2 6 9 9 16 21 20 16 4 1 4 1 3 2 2 5 3 2 3 1 1 2 2 2 4 4 3 3 4 3 1 2 2 3 4 6 3 2 3 4 3 1 2 5 5 5 6 5 3 4 5 6 6 7 7 8 7 5 5
23 25 26 26 26 23 20 17 14 12 11 7 3 4 4 4 5 6 7 7 5 6 4 1 1 0 2 3 3 2 4 9 9 13 20 20 16 5 2 3 3 4 3 3 5 5 3 3 2 0 3 3 2 4 2 2 1 2 2 2 3 3 3 4 5 2 2 4 4 2 1 2 4 5 4 6 5 3 4 6 6 7 6 5 5 4 3 4
23 24 26 27 26 23 19 16 14 12 9 4 5 6 6 6 6 5 6 5 3 2 2 2 3 1 3 5 4 3 3 7 7 9 14 16 13 6 1 4 4 3 2 2 3 3 2 2 3 1 2 2 2 4 5 5 4 1 1 1 3 4 5 5 6 3 2 4 5 2 0 2 4 4 4 5 5 3 5 6 6 6 4 3 4 4 4 4
23 24 26 28 26 23 18 16 13 10 8 3 7 6 4 3 3 2 0 3 4 5 6 4 5 3 5 5 1 2 3 5 4 6 13 14 11 6 1 3 5 3 1 1 2 1 3 2 1 4 5 5 5 6 5 4 4 1 0 1 3 4 5 5 5 3 3 4 2 1 1 3 3 4 4 5 5 3 5 5 4 5 3 2 4 5 5 4
22 24 26 28 27 23 17 15 12 7 6 3 6 3 1 1 2 3 3 4 7 8 10 8 6 6 8 4 4 6 4 2 1 3 12 13 11 6 1 2 3 1 2 1 1 2 3 2 3 5 7 7 6 5 4 2 3 1 1 1 3 3 3 6 5 3 3 3 0 1 3 4 3 4 4 4 4 3 2 2 3 5 3 2 5 7 5 4
22 23 26 28 28 24 16 14 10 5 4 3 3 1 2 1 3 4 2 4 7 7 9 9 4 8 10 8 11 6 1 2 2 2 11 12 7 4 1 3 3 2 2 3 3 3 3 3 6 5 4 3 3 4 5 3 3 1 1 0 3 1 1 5 6 6 3 2 1 3 4 3 3 4 3 3 3 3 3 3 2 4 4 2 4 7 5 5
23 23 25 27 27 23 17 13 7 3 1 1 3 2 1 5 7 3 4 2 7 3 4 5 4 6 6 6 11 9 1 4 2 2 12 12 3 3 3 3 2 2 1 2 3 2 3 4 5 2 2 3 1 3 6 4 2 3 2 2 2 2 2 2 4 6 5 2 2 2 3 2 3 3 3 2 2 2 3 2 1 2 4 4 5 5 4 5
23 24 25 27 27 22 16 12 4 3 3 3 4 1 4 9 8 2 3 1 4 4 3 5 4 5 3 2 9 11 3 5 4 4 13 13 4 2 3 2 2 1 2 4 4 3 6 7 3 3 2 2 1 1 4 3 2 3 5 4 3 4 4 3 2 2 3 4 2 3 3 3 3 2 2 2 3 2 3 2 2 2 4 6 6 5 3 2
23 24 25 27 25 19 14 8 1 1 6 4 4 2 7 10 8 2 2 3 2 5 4 3 2 4 3 3 9 9 2 3 2 5 14 13 7 4 1 2 3 1 3 3 2 3 7 5 2 2 1 2 2 2 3 4 2 2 3 5 5 5 5 3 3 2 2 3 2 2 3 2 3 2 2 2 2 2 1 1 2 3 5 6 4 5 5 4
23 24 25 26 25 19 11 4 1 4 7 2 2 4 7 10 7 3 4 4 2 5 3 1 1 2 3 3 5 4 3 2 2 8 15 12 7 5 1 1 0 2 4 4 2 2 4 2 2 2 1 1 2 3 3 4 2 3 3 2 4 5 5 5 4 3 2 0 2 2 3 1 3 2 1 2 1 2 3 2 4 4 5 6 4 5 7 6
23 24 25 25 24 18 7 1 3 4 3 1 1 5 8 9 4 4 3 5 2 3 2 1 0 2 3 4 5 3 1 2 2 6 9 11 7 3 1 1 1 3 3 2 2 2 2 2 2 0 2 3 2 2 3 4 4 2 4 3 4 5 5 4 4 3 2 2 2 3 3 3 2 2 2 1 1 1 3 4 4 3 4 6 6 6 8 8
23 24 24 25 23 17 7 3 4 3 3 3 4 6 9 7 0 3 4 3 2 2 1 3 2 1 1 2 5 2 1 1 3 0 2 9 7 3 0 5 3 4 3 4 2 4 2 2 3 3 1 2 2 2 4 5 4 3 4 3 4 4 4 3 3 2 1 3 3 5 3 3 1 3 4 2 1 1 1 2 3 3 4 4 5 5 7 7
23 24 24 25 22 15 6 3 4 3 4 4 5 8 9 3 2 4 4 2 2 2 1 2 2 2 3 2 1 2 1 2 1 1 2 6 6 1 1 5 4 4 3 4 3 5 2 4 6 5 2 2 3 2 3 4 2 3 1 3 4 4 3 3 3 3 3 4 2 5 4 3 2 3 3 3 2 2 3 3 2 4 4 4 5 5 5 5
24 24 24 24 19 10 5 5 6 4 3 5 7 9 5 2 4 5 2 1 1 2 1 2 2 3 4 3 2 4 3 2 2 3 2 1 3 1 2 1 4 3 1 1 3 5 3 1 3 4 3 4 2 2 2 3 3 2 2 4 4 3 3 3 2 3 4 2 2 5 4 4 1 3 1 1 2 3 3 4 2 2 3 4 4 4 5 5
24 24 24 22 14 6 3 3 2 3 2 7 8 5 2 3 4 5 1 3 2 2 3 3 3 4 5 4 3 4 3 2 3 4 1 1 2 2 2 2 2 2 3 3 4 3 2 2 1 2 3 3 4 4 2 2 3 3 2 3 3 3 3 3 3 3 4 1 2 4 3 3 3 2 2 1 3 3 3 4 4 2 1 4 4 4 4 5
24 24 22 17 10 5 2 2 3 4 6 7 5 2 4 2 2 2 2 3 2 2 2 2 3 4 4 4 3 4 4 3 1 3 3 2 1 0 2 2 0 3 4 3 3 3 0 1 3 3 0 3 4 3 3 4 4 3 3 3 2 2 2 2 3 3 1 1 2 2 2 3 1 3 3 4 4 3 4 4 4 4 3 2 4 4 4 5
24 23 18 11 6 4 3 3 5 6 6 4 2 4 6 4 0 2 2 2 1 2 1 1 3 4 3 4 4 5 3 2 2 2 2 1 1 1 3 3 3 2 2 2 3 4 2 4 5 4 2 0 4 3 1 2 1 2 1 1 2 1 2 1 1 1 1 1 3 3 2 2 1 1 3 6 4 3 3 3 3 3 1 2 4 5 5 5
23 20 12 5 4 4 3 4 4 3 4 1 3 4 4 2 1 2 1 2 3 2 2 1 3 5 5 3 2 4 2 3 4 4 2 2 3 3 4 3 0 2 1 1 1 1 2 4 3 1 0 1 1 3 4 3 2 1 2 2 2 1 2 0 1 2 0 2 3 4 1 1 2 1 4 5 2 1 2 3 3 2 3 4 6 6 5 4
21 14 6 3 5 5 5 4 2 2 2 3 6 4 3 2 2 1 2 3 2 3 3 2 3 5 5 2 3 3 1 2 4 4 3 3 2 2 2 3 2 2 2 2 1 1 2 3 5 2 1 1 1 2 3 4 2 1 1 2 1 1 2 2 1 2 2 1 2 3 1 1 1 1 3 3 2 3 5 6 6 6 6 6 6 5 5 4
17 7 3 5 5 4 5 4 1 0 1 4 6 3 2 3 2 2 3 2 1 3 4 4 4 4 4 4 3 4 2 1 3 4 2 2 1 2 2 3 2 2 2 0 1 1 2 3 5 3 1 0 1 2 2 2 0 0 1 0 1 1 3 3 1 2 1 2 2 2 1 2 1 0 3 5 5 5 7 7 7 7 6 6 6 5 5 4
15 4 3 6 6 5 5 4 3 2 2 6 5 1 3 3 3 4 3 1 1 1 4 2 1 1 2 3 3 5 4 2 3 3 1 3 1 2 3 3 2 1 1 2 1 1 1 3 5 1 2 3 1 3 4 2 2 2 0 2 2 2 3 3 2 2 3 2 1 2 1 2 2 1 3 6 7 6 7 7 6 6 5 5 5 6 6 6
13 1 3 7 7 5 5 4 3 3 4 6 2 2 2 2 3 3 3 1 1 2 4 2 2 1 2 1 3 5 3 3 3 3 1 2 1 1 2 3 2 2 2 1 1 1 2 2 6 1 1 3 2 5 3 3 1 3 3 2 2 2 1 1 1 1 2 2 1 2 2 1 2 2 4 6 7 6 6 6 6 6 5 5 5 6 7 7
9 0 2 7 6 4 4 4 4 4 5 4 1 1 1 3 4 4 4 1 1 2 2 3 1 1 1 2 1 3 3 1 1 2 1 1 1 1 1 1 3 5 3 2 2 0 2 1 4 3 1 1 2 3 1 3 3 2 2 1 1 2 2 1 1 1 2 1 1 1 2 1 2 3 5 6 5 5 5 5 5 6 5 5 5 6 6 5
4 2 1 6 5 3 3 5 4 5 4 1 2 2 1 2 4 5 4 3 3 1 1 3 2 1 1 2 1 1 1 1 1 1 1 0 1 3 2 1 3 8 6 1 1 0 2 2 2 5 3 1 1 1 4 3 1 1 1 1 1 2 1 1 1 1 3 2 1 1 1 2 2 3 5 6 5 4 5 4 4 5 5 6 6 6 5 5
2 2 2 6 4 1 4 5 3 3 2 1 1 2 2 1 3 5 3 2 3 1 2 5 3 1 2 1 1 2 1 1 0 1 1 1 0 2 3 1 2 6 5 4 2 0 1 1 1 3 2 1 4 5 5 6 4 4 3 2 2 2 2 2 2 2 2 3 2 2 1 2 2 2 3 4 4 4 5 5 5 5 6 7 6 6 6 6
3 2 3 5 2 1 5 4 1 2 2 1 2 3 3 2 2 4 4 2 2 2 3 4 2 2 2 1 1 1 0 0 1 1 1 2 1 3 4 3 3 3 1 1 3 2 2 3 1 2 2 4 5 3 1 4 4 4 2 1 3 3 3 4 2 1 2 2 0 2 2 1 2 3 2 2 3 5 6 5 6 6 6 7 7 7 7 6
3 1 3 4 0 1 6 3 3 4 0 3 3 3 3 1 1 3 4 4 3 2 3 2 1 1 1 1 1 1 1 1 1 0 1 3 3 5 6 5 6 2 2 1 4 1 2 3 2 2 4 3 4 4 3 3 4 3 1 1 2 2 2 4 4 3 2 1 1 3 1 2 3 3 2 2 3 6 6 6 7 7 6 7 8 7 6 6
2 2 2 4 0 1 5 2 1 3 3 4 4 3 3 1 1 2 3 3 2 2 2 1 1 0 1 1 2 1 1 1 1 2 1 1 3 5 5 5 5 2 1 1 2 0 0 1 2 2 4 5 5 5 5 5 3 1 2 2 1 2 4 4 2 3 3 1 2 4 1 4 3 2 2 2 5 7 7 7 7 7 6 6 7 6 6 6
1 1 2 3 3 3 3 3 3 1 3 4 4 5 4 2 2 1 0 2 2 2 2 1 1 1 1 1 2 1 1 1 0 2 1 1 4 4 5 7 5 2 2 2 1 1 2 2 2 2 1 1 1 2 3 3 3 2 2 4 2 3 5 4 2 3 2 2 2 3 3 3 2 1 2 3 6 8 7 8 7 6 7 6 6 6 5 5
1 0 2 4 4 4 2 1 4 3 1 1 2 3 2 2 4 3 1 1 2 2 2 1 1 1 3 3 3 2 2 1 1 1 1 2 4 3 5 7 4 4 7 6 4 3 3 2 2 5 5 4 4 4 4 3 3 4 5 6 4 1 3 5 4 1 3 4 1 2 4 4 4 5 4 3 7 8 7 8 7 6 7 6 5 6 5 5
2 1 1 0 2 2 2 2 3 3 0 1 1 2 2 2 3 3 2 1 2 2 2 2 2 2 1 1 2 1 3 3 2 1 1 3 3 4 7 5 2 7 11 8 4 3 4 2 1 4 4 4 5 5 5 2 2 4 6 6 4 3 3 5 3 2 5 5 1 4 5 7 6 6 6 5 7 8 7 7 7 6 7 6 6 7 7 7
1 1 1 2 1 1 1 1 1 2 0 2 2 1 1 2 2 1 1 2 3 2 2 2 4 2 2 2 3 0 3 4 4 2 2 2 2 4 7 4 2 6 9 7 4 3 5 1 1 1 1 2 2 2 2 2 2 3 4 5 5 5 2 3 2 2 4 3 3 7 8 6 5 5 6 6 7 8 7 6 6 7 7 7 7 8 8 7
1 1 1 1 1 3 3 1 1 2 1 3 2 1 1 1 2 2 1 2 4 3 3 1 4 5 3 2 4 1 1 1 2 4 2 1 2 2 4 4 3 4 7 6 4 2 3 1 1 1 2 4 4 3 4 5 3 3 4 5 6 5 3 3 3 3 4 3 4 9 9 4 2 3 4 5 7 7 6 6 6 7 7 7 8 7 7 7
1 2 1 2 2 1 1 1 2 2 1 2 2 2 2 3 2 3 1 3 0 3 2 1 4 4 2 3 4 1 4 6 3 4 3 1 2 1 1 3 3 4 7 5 3 2 2 2 1 2 3 5 5 5 6 5 3 2 4 7 8 7 6 5 3 3 5 5 5 9 8 3 1 2 5 6 7 7 7 6 6 6 6 7 7 7 6 6
1 1 2 4 1 2 0 1 2 3 1 1 2 2 1 3 4 2 1 2 3 2 1 2 4 3 1 2 3 3 6 7 7 8 7 4 3 3 2 3 2 3 6 3 2 3 3 1 1 4 3 4 5 6 6 5 4 3 5 8 9 6 3 2 1 0 3 5 7 7 6 4 3 4 6 6 7 8 8 7 6 5 5 7 7 6 6 6
2 1 2 4 1 2 1 1 2 3 2 2 2 2 1 3 3 1 1 2 1 2 3 3 2 1 2 1 3 5 7 7 8 9 6 4 4 5 4 3 1 0 2 1 2 2 2 2 1 3 1 4 5 4 4 5 6 3 4 4 5 4 1 2 1 1 3 7 8 5 4 5 5 7 8 7 8 9 7 6 6 5 5 6 6 6 6 6
Wind_Direction
348 346 341 338 337 335 333 331 329 325 323 321 318 315 314 316 314 314 312 311 312 312 315 316 317 318 318 321 320 322 325 322 321 318 295 278 301 291 290 298 202 188 183 168 173 288 80 73 51 66 119 98 45 37 76 166 89 63 83 99 172 214 209 208 215 205 202 255 272 288 345 348 289 317 344 304 232 255 292 269 257 278 318 339 153 145 153 158
348 345 341 337 334 333 331 329 327 323 322 320 318 316 313 314 312 313 311 311 311 311 315 316 319 320 319 323 323 327 328 322 315 297 276 297 316 304 302 290 198 180 166 147 188 147 93 68 16 50 89 43 327 40 21 222 127 116 118 116 221 208 218 222 222 230 207 236 272 286 312 275 264 292 352 320 292 333 310 270 270 271 307 73 129 152 155 147
349 345 341 336 332 329 328 327 325 321 320 320 318 315 313 312 311 311 311 311 311 312 314 316 320 321 323 325 325 331 326 323 318 287 297 351 334 326 343 244 181 164 157 152 157 119 95 88 36 57 68 38 312 37 37 266 173 158 121 167 243 214 231 256 230 238 236 244 280 286 294 257 251 280 349 318 301 309 272 260 267 247 210 144 163 165 139 130
351 347 343 338 332 327 325 324 321 319 319 318 317 315 313 311 309 308 309 310 311 312 313 317 321 321 326 325 328 335 328 333 324 269 9 8 12 26 36 105 148 145 155 163 134 112 91 75 58 66 76 31 313 17 141 253 196 158 131 185 236 201 220 261 232 238 249 231 254 279 298 282 267 219 221 336 310 294 256 251 253 237 223 174 167 158 135 139
351 349 346 340 334 328 323 321 318 316 315 314 315 313 313 312 308 307 307 309 310 311 314 317 320 322 326 327 334 336 344 26 279 249 49 43 71 67 71 111 137 143 154 164 141 97 67 62 58 54 61 17 326 38 225 235 152 167 206 207 218 163 201 257 239 242 242 199 228 269 288 281 272 211 203 171 228 265 236 253 264 250 255 260 152 167 158 149
349 349 347 341 336 330 322 318 316 313 312 312 312 311 312 309 306 307 306 307 309 309 314 317 320 324 325 326 333 334 7 353 267 199 103 112 110 97 100 126 140 143 153 156 124 73 53 58 51 43 41 9 217 162 229 237 134 184 255 233 217 184 198 243 231 230 211 178 219 242 262 264 290 286 210 176 221 254 261 273 277 275 274 4 334 202 167 154
347 347 346 342 337 331 324 319 315 311 310 310 309 309 309 307 307 307 305 306 307 309 314 319 321 323 330 340 354 47 85 265 264 185 145 135 128 118 119 137 142 147 161 150 99 76 64 56 37 134 89 3 221 220 249 300 35 167 253 251 229 216 215 245 254 249 203 195 235 250 280 249 256 299 350 280 258 269 286 288 278 293 294 208 208 218 183 163
346 345 345 342 337 333 327 320 317 312 308 308 308 308 306 305 306 304 304 305 305 310 313 318 321 323 342 358 35 9 184 256 251 176 165 153 143 137 139 150 153 161 168 158 121 121 106 102 214 164 109 281 196 226 300 347 344 178 228 250 261 262 254 284 307 315 329 260 263 294 273 249 218 209 307 286 277 287 291 294 286 294 296 230 196 196 190 168
347 345 344 342 338 334 328 322 318 313 309 307 306 307 305 303 302 302 302 302 305 310 312 317 316 339 11 350 37 349 275 252 204 172 171 165 155 150 160 167 170 179 174 176 149 125 131 202 223 186 183 215 172 257 340 34 301 217 207 223 257 275 272 305 313 305 318 273 271 282 279 288 264 235 249 270 293 306 291 293 313 314 333 19 135 165 176 174
348 346 344 342 340 336 330 324 319 315 311 307 306 306 304 302 300 299 298 300 306 308 312 310 300 33 35 332 66 348 285 229 177 173 174 175 167 164 179 183 183 190 178 178 170 154 182 208 251 197 158 151 167 245 152 124 232 226 216 235 244 274 283 305 242 256 259 261 210 226 287 314 297 279 255 279 343 338 313 320 4 357 352 12 59 135 169 180
350 348 345 343 342 338 332 326 322 318 311 306 306 304 302 303 301 296 294 297 301 307 313 307 286 183 288 5 120 235 280 203 180 175 176 184 181 177 183 188 193 200 190 175 205 208 225 237 247 108 163 183 191 286 258 200 220 256 318 294 289 314 293 238 237 251 192 246 165 157 288 316 330 353 251 281 353 359 323 336 17 14 345 336 126 135 176 202
352 349 347 345 343 339 334 329 325 319 310 305 303 302 301 301 298 292 291 295 295 303 309 314 139 167 157 53 203 237 273 226 188 181 183 188 192 192 191 200 205 215 210 199 243 235 239 245 215 210 263 163 171 333 269 216 28 350 28 328 306 340 317 275 258 230 165 214 165 143 323 345 330 294 275 298 344 353 337 3 24 0 338 334 241 145 172 213
352 351 349 347 343 339 336 331 326 320 311 305 302 303 302 297 293 287 287 291 285 278 255 181 159 165 135 242 235 262 267 229 195 191 191 193 199 205 209 218 213 233 243 238 267 265 256 248 215 219 246 129 239 288 45 35 38 337 26 22 321 348 331 313 315 256 172 205 33 107 321 320 296 288 304 330 348 18 355 11 30 342 340 320 251 94 117 179
352 351 351 348 345 341 338 333 327 320 312 309 306 304 301 295 289 279 277 283 277 261 201 156 151 153 161 243 278 307 247 221 204 201 196 198 202 208 217 224 212 227 261 261 273 284 294 254 211 196 244 166 271 293 6 5 23 332 334 28 13 359 303 305 312 262 251 331 36 73 153 284 291 300 335 339 337 42 5 13 26 345 357 315 15 56 38 147
351 351 351 349 346 343 341 336 327 320 316 312 308 305 301 296 288 276 269 266 141 109 145 146 154 156 264 280 296 282 223 209 212 208 200 201 201 202 216 214 206 225 273 283 281 289 310 236 177 132 255 271 33 26 346 347 4 17 11 333 352 22 287 306 308 201 220 307 32 64 157 286 287 301 343 321 303 33 22 34 37 358 18 350 30 51 9 49
350 350 350 349 347 345 342 337 329 322 320 316 313 313 309 303 287 269 235 148 111 132 147 148 196 181 286 297 351 146 213 208 219 210 205 206 201 198 204 192 186 284 263 297 312 292 318 63 143 146 173 8 53 70 16 7 343 1 55 311 309 324 304 316 308 251 211 7 34 41 150 262 284 309 334 298 293 16 13 38 49 15 25 18 31 44 5 25
348 348 349 349 347 345 342 338 330 323 323 321 326 337 341 20 91 95 126 125 122 154 156 152 231 193 260 262 167 278 221 209 223 211 208 209 204 211 55 162 100 6 271 344 27 18 356 29 348 272 58 34 75 84 32 3 331 333 24 354 277 279 298 310 301 303 58 71 59 40 108 248 298 327 324 299 313 16 17 30 49 31 33 41 42 45 3 15
346 346 347 349 348 346 343 338 332 328 329 333 15 59 81 99 104 98 117 128 129 152 164 189 146 158 258 217 209 234 201 201 214 207 206 207 204 212 43 106 59 17 359 4 18 23 359 3 47 356 9 7 42 84 95 244 252 305 346 348 307 295 283 275 283 286 82 62 69 73 32 345 333 351 336 312 327 10 36 43 62 52 45 70 83 86 39 26
344 345 345 347 348 347 343 339 335 335 343 17 103 108 106 102 103 104 120 127 123 170 266 228 179 340 276 245 247 256 225 194 186 189 194 196 196 200 92 81 59 24 7 353 347 16 23 8 41 351 302 290 233 162 190 205 176 190 256 225 272 291 282 260 261 264 114 76 55 64 67 13 344 355 352 322 323 14 53 49 67 71 61 102 114 106 90 56
343 343 343 345 347 347 342 337 336 341 359 74 135 124 97 65 52 23 130 176 200 237 271 230 188 268 286 273 258 142 193 181 167 182 184 181 170 168 178 62 51 29 20 249 275 350 83 59 312 232 236 245 236 211 217 204 160 156 52 225 257 252 276 286 274 300 75 86 45 58 77 39 350 334 338 318 318 2 62 60 78 105 99 108 121 112 102 90
342 342 342 344 345 345 341 333 332 339 3 96 153 130 106 81 19 315 301 257 229 220 246 242 201 241 257 249 168 138 127 184 278 156 171 171 151 146 238 68 75 1 312 294 280 359 55 37 275 237 229 239 235 207 208 195 163 194 200 283 297 237 270 312 302 315 61 105 314 39 55 39 6 327 321 313 316 342 49 79 112 136 136 100 130 128 118 123
342 341 340 342 343 344 339 329 324 321 10 84 168 169 159 74 336 268 256 309 271 212 224 248 253 260 254 243 229 206 49 286 315 109 160 162 151 169 187 85 121 192 294 323 330 344 358 307 272 252 219 205 195 173 176 192 185 202 158 72 310 265 301 315 310 319 9 98 336 12 41 26 2 336 311 306 310 342 25 34 82 140 142 107 116 129 136 139
341 340 340 340 342 343 337 328 316 265 356 38 210 175 75 353 351 244 186 311 293 246 204 225 236 251 259 257 221 190 176 227 216 196 170 157 158 186 131 100 162 158 150 252 248 319 323 262 238 213 135 123 120 154 157 171 182 190 173 138 258 227 155 275 297 315 339 53 109 72 49 354 348 333 303 327 352 358 15 27 63 132 140 126 109 123 150 144
338 339 338 337 341 342 336 331 308 218 315 298 229 185 6 350 4 103 171 311 298 290 237 212 214 222 250 290 173 159 174 208 173 191 177 159 138 149 144 146 147 131 245 215 202 231 270 259 204 104 68 114 80 105 156 176 247 214 186 174 218 216 188 207 224 259 333 23 89 96 56 355 4 7 334 28 63 18 348 36 76 97 127 125 120 139 149 114
336 337 335 335 340 342 338 333 271 244 323 290 211 325 357 348 351 98 125 34 308 292 277 223 238 222 205 112 156 161 147 204 212 178 173 165 142 130 173 155 127 232 226 178 164 245 269 273 161 132 332 96 57 315 204 188 274 284 205 195 201 189 181 182 163 147 33 17 333 61 66 6 352 29 354 5 82 109 338 28 133 161 135 122 140 164 140 106
334 334 334 333 336 341 343 333 268 331 322 262 187 334 344 342 342 138 117 35 328 293 310 221 203 211 199 140 169 163 98 281 278 149 159 170 156 124 113 127 162 228 183 158 159 244 272 324 92 167 286 59 25 304 230 160 101 320 291 213 165 142 137 146 143 114 84 237 288 27 98 83 335 349 340 336 358 132 147 216 211 177 138 139 169 174 144 142
332 332 333 331 334 341 343 257 290 316 305 244 274 322 332 338 349 138 94 26 347 292 298 266 136 152 220 189 161 126 108 297 41 125 153 169 162 77 61 207 255 237 183 115 1 277 235 354 42 56 354 8 359 311 230 143 106 288 300 30 96 108 112 131 123 106 154 203 331 11 95 103 354 310 323 359 325 105 144 195 210 167 160 165 168 167 161 164
331 332 331 328 333 337 323 263 278 263 225 266 289 311 328 333 347 126 75 56 295 290 232 282 280 160 274 171 139 113 206 143 87 314 162 164 171 54 287 219 201 229 197 110 322 280 190 194 212 189 39 341 281 251 196 131 97 272 285 56 92 104 110 120 93 75 83 73 3 343 55 83 304 294 327 14 92 4 352 223 195 175 199 185 168 176 170 160
331 332 329 327 330 333 327 264 246 236 243 270 298 313 321 330 121 80 69 110 280 293 178 320 321 307 353 91 130 353 40 72 86 229 104 161 202 112 199 220 174 203 208 134 231 263 231 218 193 156 134 229 242 225 176 144 128 241 213 75 73 76 84 85 92 101 61 59 3 335 32 84 308 308 336 9 39 350 320 292 208 179 196 197 186 181 159 141
331 332 327 325 327 334 340 286 259 235 250 296 313 313 325 67 84 63 59 201 300 295 253 3 347 326 11 58 332 347 58 55 74 111 89 184 244 271 264 241 123 142 299 32 252 258 284 276 158 147 179 197 154 102 159 171 134 130 81 47 33 23 42 39 56 99 66 29 336 350 21 96 40 306 285 31 335 303 294 290 278 162 176 194 192 168 148 134
332 331 326 323 323 323 332 307 256 192 274 320 322 321 52 66 63 84 144 249 285 320 346 357 333 343 20 44 346 341 16 26 93 108 145 263 317 339 335 349 47 47 5 351 308 288 342 56 178 230 195 149 100 79 62 47 67 75 53 42 18 339 16 26 348 46 69 328 311 351 2 89 84 279 275 292 279 277 266 273 292 301 209 190 177 152 136 121
332 330 325 322 316 300 265 244 259 269 300 317 332 37 87 53 26 110 263 301 311 307 337 309 316 348 354 20 15 332 343 359 84 111 148 198 295 237 201 224 208 14 344 319 332 336 6 204 277 309 299 127 100 66 17 10 27 44 39 45 50 351 5 28 350 17 64 263 302 344 40 73 142 235 296 316 308 304 271 257 267 272 265 190 158 134 116 122
332 331 327 325 325 315 296 278 279 289 298 302 5 53 76 78 97 220 278 335 285 274 330 309 332 354 351 24 7 325 347 7 356 50 116 133 59 299 264 229 156 73 296 277 350 353 341 308 325 4 351 136 114 107 7 318 19 67 55 66 86 74 41 15 357 29 334 257 293 315 61 54 281 241 321 324 330 320 286 275 274 270 267 125 123 116 118 133
334 333 329 338 26 18 349 313 281 285 306 347 77 63 73 91 215 211 283 279 264 307 3 348 339 354 11 43 322 320 18 345 345 31 23 34 49 353 316 297 61 116 149 33 359 28 28 323 305 48 335 303 130 164 166 153 125 151 205 141 118 141 111 30 172 121 215 252 296 319 18 13 319 330 325 321 330 8 37 22 19 41 68 99 104 104 115 119
335 334 339 38 53 36 7 339 287 271 315 53 68 70 111 203 247 225 249 250 284 333 330 359 44 23 355 334 304 336 55 299 347 38 27 34 42 322 314 296 299 115 96 25 289 178 44 284 260 269 205 130 324 237 142 106 78 299 251 88 38 239 126 101 114 131 175 207 331 337 327 294 277 308 337 1 36 49 57 45 45 53 56 75 86 92 107 113
336 340 44 47 47 39 13 5 35 62 42 73 64 70 170 216 209 179 220 231 340 322 332 356 44 50 331 314 328 338 344 304 9 32 13 14 334 271 280 272 251 141 124 136 235 314 17 290 281 320 345 169 202 203 98 68 46 21 25 61 246 200 114 109 57 5 61 93 16 359 337 310 291 15 359 26 41 42 51 47 51 60 61 73 87 100 112 115
338 5 68 31 34 40 26 36 58 24 55 83 84 163 220 230 186 183 221 273 321 11 62 35 358 80 298 308 318 318 338 1 13 31 4 349 328 250 300 290 235 132 240 196 215 260 153 288 295 13 16 310 168 105 53 41 134 113 172 224 181 78 67 92 94 356 32 73 349 357 350 321 3 15 357 23 33 42 55 54 58 67 70 75 86 99 104 105
330 9 69 22 23 37 40 39 17 13 66 75 67 237 221 229 206 201 231 291 328 60 90 140 233 169 201 245 292 304 344 3 356 26 41 342 329 238 334 315 273 351 347 153 83 20 124 304 303 295 144 304 30 69 22 334 37 121 168 179 116 98 16 34 74 3 47 62 320 337 313 303 36 1 357 24 28 36 52 57 60 64 72 80 82 85 87 93
318 46 45 4 15 50 43 0 349 37 70 65 345 240 221 242 244 234 231 230 104 100 120 189 190 80 181 188 245 300 347 12 353 23 63 37 329 301 36 6 304 332 351 138 168 250 107 95 301 299 264 294 26 65 253 296 348 51 100 48 59 128 152 135 106 146 114 119 264 358 352 338 24 353 353 9 16 38 55 60 62 63 67 74 77 76 72 76
319 82 1 345 18 59 352 343 9 54 66 94 196 220 268 264 268 267 241 178 150 159 197 178 140 68 245 231 225 268 353 54 177 10 357 210 303 307 316 118 328 326 335 26 154 184 74 101 271 300 326 4 3 214 205 198 149 94 102 271 292 74 101 124 61 43 117 130 204 89 39 308 336 1 350 351 7 59 77 75 73 72 67 66 68 68 66 69
24 69 312 340 17 7 345 9 42 58 69 136 208 244 274 261 277 298 291 184 169 202 164 144 137 150 190 235 260 238 332 34 40 20 312 288 39 297 279 130 28 322 334 13 22 136 111 124 229 298 336 209 243 242 213 193 171 150 159 198 173 128 123 105 39 341 83 116 176 137 112 282 325 359 346 350 19 77 90 84 80 76 69 67 66 66 69 72
65 84 300 338 359 349 29 46 22 42 113 225 290 259 274 301 285 304 323 359 91 74 80 105 119 146 165 187 228 223 245 56 33 50 273 269 198 204 253 330 350 289 219 346 300 224 148 101 95 278 244 222 253 278 199 173 151 140 134 110 129 131 115 115 153 240 55 44 61 88 78 274 322 347 1 22 44 78 83 81 86 81 75 75 72 70 70 71
96 179 321 1 314 72 58 59 332 3 262 267 292 253 256 285 297 318 351 15 34 47 43 58 122 139 179 200 139 170 244 178 185 223 281 272 249 231 253 324 339 305 129 4 307 225 112 61 51 303 293 290 309 357 34 60 89 105 348 56 129 166 130 137 168 158 104 19 10 64 31 268 303 343 11 35 62 81 77 76 83 81 76 74 69 64 63 65
153 230 327 15 76 79 68 99 320 340 295 306 334 310 294 268 306 355 2 358 8 84 70 43 253 306 159 144 97 173 250 94 213 271 294 239 263 264 279 332 346 330 142 238 285 19 46 35 57 15 345 344 345 357 1 360 25 72 284 299 202 138 108 117 126 85 90 214 157 112 192 263 287 353 38 65 85 83 73 71 74 71 69 66 61 59 59 62
99 219 296 345 32 74 93 151 146 192 285 327 334 313 325 319 304 346 30 353 17 125 120 25 244 116 89 65 48 5 338 75 245 294 354 271 278 289 322 343 350 321 278 253 249 45 87 108 94 96 88 319 299 309 312 313 322 320 307 322 343 117 124 135 120 78 103 192 130 125 185 242 249 115 85 98 105 95 85 84 78 66 69 66 60 63 63 68
84 124 295 334 12 59 89 133 107 114 256 348 324 298 328 321 304 320 76 52 28 69 87 33 309 56 46 40 35 344 323 4 348 319 327 286 277 281 317 330 335 341 350 8 37 69 99 89 97 137 158 185 200 233 260 286 326 330 325 333 353 69 111 110 101 119 163 142 74 230 182 158 159 150 137 126 114 107 103 99 94 86 81 75 74 77 72 71
93 177 178 39 349 27 37 16 64 81 169 166 197 279 283 292 305 333 11 43 27 39 72 47 33 54 31 40 63 305 301 341 350 321 268 272 267 284 306 305 298 341 353 5 18 68 88 25 27 140 169 203 205 239 277 310 355 335 323 327 343 355 45 93 115 200 151 113 3 239 171 145 159 158 147 142 120 111 112 105 103 105 100 97 95 87 80 75
103 205 184 155 205 183 108 328 84 61 321 197 201 281 297 319 321 301 323 356 12 36 83 20 6 359 245 198 119 47 321 351 348 322 297 307 310 323 327 316 298 345 359 0 358 78 105 30 312 149 244 257 222 272 335 44 32 354 340 338 347 342 349 121 143 162 128 121 196 185 160 151 156 144 140 141 121 112 114 109 108 108 105 104 98 87 81 77
118 114 294 6 118 184 196 233 77 52 284 213 227 286 193 207 292 258 253 10 353 356 88 97 306 311 285 199 135 106 293 50 336 297 255 298 331 352 345 326 315 356 14 6 350 77 114 271 279 87 345 347 356 359 39 49 32 10 1 5 11 5 21 90 96 84 76 77 148 146 136 128 125 124 126 120 111 109 113 111 108 106 103 100 94 88 85 81
138 159 207 44 41 233 209 39 72 69 318 244 226 272 205 177 225 269 221 115 312 313 46 131 270 296 291 176 133 127 223 180 200 254 202 178 308 282 257 269 276 344 4 4 335 9 34 294 264 82 28 332 341 9 23 33 61 56 5 8 17 22 32 46 54 68 66 68 102 118 118 118 198 131 112 107 111 113 115 114 105 101 104 101 94 88 84 81
104 159 138 109 77 305 4 56 86 105 357 292 197 242 235 194 219 253 247 165 176 225 230 220 271 311 17 141 146 242 242 189 195 229 204 188 240 222 211 223 202 337 345 356 335 347 27 337 324 59 49 298 325 6 357 3 55 52 2 0 360 3 31 34 323 201 139 130 119 115 130 165 188 133 113 116 124 118 117 117 107 101 105 102 99 96 89 88
111 28 54 105 118 303 76 72 65 113 183 217 215 236 217 235 257 153 141 286 285 225 219 205 211 337 3 290 225 242 240 204 214 237 217 203 235 227 233 249 133 170 283 315 351 341 93 96 355 60 86 277 307 350 355 20 37 355 310 326 322 304 191 158 257 250 153 145 144 156 175 165 149 136 132 135 131 126 127 129 123 122 113 103 106 108 102 98
Height
793 792 790 789 788 787 786 785 784 783 782 780 779 779 778 777 776 776 775 774 774 773 772 771 770 770 769 768 767 765 763 761 760 760 758 753 751 751 751 752 752 753 753 754 754 755 756 757 757 757 757 758 760 760 759 760 760 763 770 777 779 779 775 769 766 765 765 762 756 752 753 757 754 750 749 746 746 746 744 740 736 734 733 731 729 728 729 731
792 791 789 788 787 786 785 784 783 782 781 780 779 778 777 777 776 775 774 774 773 772 772 771 770 769 768 768 766 765 763 761 759 758 755 751 751 751 751 751 752 753 753 754 754 755 756 757 758 757 758 759 761 760 760 760 760 765 772 777 777 774 769 763 763 761 761 760 756 754 754 756 755 752 751 750 748 748 747 741 736 737 735 732 730 731 731 732
792 790 789 788 786 785 785 783 782 781 780 779 778 777 776 776 775 774 773 773 772 772 771 770 769 768 768 767 766 764 763 761 758 755 752 751 751 750 750 751 752 753 753 754 755 755 756 758 758 757 758 761 761 761 761 760 761 764 770 776 772 767 765 761 760 759 758 758 757 756 755 755 754 753 753 753 752 749 748 743 739 739 737 735 733 733 732 734
791 790 788 787 786 785 784 783 781 780 779 778 777 776 776 775 774 773 772 772 771 771 770 770 769 768 767 766 766 765 763 762 756 752 751 751 751 750 750 751 752 753 754 754 755 756 757 757 757 757 760 762 762 762 762 761 761 764 767 770 765 762 764 759 756 756 756 758 758 756 756 754 752 753 753 754 755 749 745 743 740 738 736 735 734 735 737 738
791 789 788 786 785 784 783 782 780 779 778 777 776 775 774 774 773 772 772 771 770 770 769 769 768 767 767 766 766 765 764 764 756 751 751 751 750 750 750 751 752 753 753 755 756 756 756 757 757 758 760 762 762 763 762 759 758 763 764 763 760 761 762 756 753 754 754 757 758 757 755 752 750 752 751 753 755 748 742 741 739 737 737 738 736 738 740 742
790 789 787 786 784 783 781 780 779 778 777 776 775 774 773 773 772 772 771 770 770 770 769 769 768 767 767 766 766 765 765 764 754 750 751 751 751 751 751 751 752 752 753 755 755 756 756 757 759 761 762 762 763 763 761 758 758 762 763 759 757 758 758 753 751 751 752 755 756 754 752 750 750 750 749 750 750 744 740 740 738 737 738 740 741 740 738 740
790 788 787 785 783 782 780 779 778 777 776 775 774 773 772 772 771 771 770 770 769 769 768 768 768 767 767 766 766 766 766 760 750 750 751 750 751 751 752 752 752 753 753 755 755 756 757 759 760 762 763 763 764 762 759 759 759 762 762 758 756 755 755 752 751 751 753 755 754 752 752 750 749 749 750 750 747 742 740 739 738 738 739 741 742 740 736 733
789 788 786 784 783 781 779 778 777 775 774 773 773 772 771 771 770 770 769 769 768 768 768 768 768 767 767 766 766 765 764 755 748 750 750 750 751 750 752 752 753 753 753 754 755 757 758 759 760 761 763 763 763 761 760 761 760 761 761 758 757 756 755 753 754 755 757 757 754 754 752 748 748 750 750 748 744 741 739 739 738 739 741 742 739 737 738 734
789 787 785 784 782 780 778 777 775 774 773 772 771 770 770 769 769 769 768 768 768 768 768 768 768 767 767 767 767 763 756 749 748 749 749 750 750 750 752 751 753 753 753 755 755 757 758 759 759 758 760 761 762 761 760 763 763 759 758 758 757 755 754 754 755 755 757 756 755 754 750 747 749 750 748 744 743 740 738 738 738 739 741 742 738 735 739 736
788 786 785 783 781 779 777 775 774 773 772 771 770 769 769 768 768 768 767 767 767 767 767 768 767 767 768 767 768 763 751 747 748 748 749 749 749 750 751 751 752 753 754 755 755 757 757 757 757 756 757 759 761 761 760 762 761 757 757 756 755 755 754 755 753 752 754 754 754 754 749 749 749 748 746 742 741 740 738 738 737 739 740 742 738 734 738 734
787 786 784 782 780 778 776 774 773 772 771 770 769 768 767 767 766 766 766 766 766 767 767 767 767 768 768 768 768 761 749 747 748 748 749 749 749 749 750 751 752 753 754 754 755 756 756 756 756 756 758 758 759 761 759 758 757 756 757 757 755 756 754 752 752 751 753 751 751 753 750 749 749 747 745 741 740 739 738 738 738 739 739 739 737 733 738 736
787 785 783 781 779 777 775 773 772 771 770 769 768 767 766 766 765 765 765 766 766 767 767 767 768 768 768 769 765 755 747 748 748 748 749 749 749 749 750 751 751 753 753 754 754 754 754 754 755 757 758 758 760 761 758 755 757 757 759 760 758 755 752 751 751 750 751 749 749 751 750 751 751 747 744 742 741 739 738 739 740 740 737 738 738 734 737 738
786 784 782 780 778 776 774 772 771 770 769 768 767 766 765 764 764 764 765 765 765 766 767 767 767 768 769 765 755 749 747 748 748 748 748 748 749 750 750 751 751 753 753 753 752 752 754 754 755 756 756 757 760 759 756 755 758 759 761 763 762 759 754 752 753 751 750 750 749 750 754 756 753 748 744 744 742 739 740 741 741 741 737 740 738 732 737 740
785 783 782 779 777 775 772 771 770 769 768 767 766 765 764 763 763 763 764 764 765 766 766 767 767 768 768 759 748 747 747 747 748 747 748 748 749 749 750 750 751 752 753 752 751 752 753 753 754 755 755 757 756 755 757 759 761 762 764 765 769 768 757 751 753 752 751 751 749 750 757 758 752 749 746 744 742 739 742 742 741 739 737 739 732 729 738 740
785 783 781 779 776 774 772 770 769 767 767 766 765 764 762 762 762 762 763 764 765 765 766 767 767 767 767 756 747 747 747 747 747 746 747 748 748 749 749 749 750 751 752 752 751 751 752 752 753 756 756 755 755 759 763 765 765 767 768 768 772 772 761 752 751 752 751 751 751 752 760 760 752 750 748 745 742 740 743 743 741 739 736 736 729 731 742 739
784 782 780 778 775 773 771 769 768 767 766 764 763 762 761 761 761 762 763 763 765 765 766 767 766 767 765 754 747 748 747 746 745 745 747 747 748 749 749 749 750 751 752 752 751 750 751 752 754 756 756 757 760 764 768 769 769 771 773 771 771 772 766 757 750 750 752 752 754 755 760 761 753 750 749 745 741 741 744 744 743 740 736 735 731 737 745 740
783 781 779 777 774 772 770 768 767 765 764 764 763 762 761 761 761 762 763 764 765 765 766 766 767 767 760 750 749 749 745 744 743 744 745 746 748 749 749 750 751 751 751 751 751 751 752 754 756 758 759 764 765 766 772 776 774 773 775 774 773 772 769 763 751 748 752 754 759 761 761 760 754 751 749 744 741 743 744 745 745 741 738 738 738 744 749 744
782 780 778 776 774 771 769 767 766 765 764 763 762 762 762 761 762 763 763 764 765 766 766 766 766 764 755 747 748 745 741 742 742 742 744 746 749 750 750 751 751 752 753 754 753 754 756 757 760 762 764 767 767 768 775 777 774 774 776 776 775 773 770 767 756 750 753 756 762 765 761 760 756 752 749 743 742 744 745 745 745 744 744 745 746 750 751 748
781 779 777 775 773 770 768 767 765 764 763 762 762 763 762 762 762 763 764 765 764 761 759 760 759 756 750 745 742 741 739 740 740 742 743 745 748 750 750 750 752 754 757 760 759 758 761 761 764 768 768 767 766 768 769 768 768 771 775 776 777 775 769 764 755 751 754 759 764 766 763 762 759 754 751 745 744 745 745 746 748 750 751 751 753 755 754 753
780 778 776 774 771 770 768 766 765 764 763 763 763 763 763 763 762 762 763 763 758 752 748 749 750 748 745 741 739 740 740 739 740 741 743 744 747 751 751 751 754 758 761 764 761 760 763 765 768 769 767 765 765 766 764 765 768 770 773 775 776 776 769 760 756 752 754 759 766 768 765 763 760 757 754 749 747 747 747 749 752 755 756 755 756 756 755 755
779 777 775 772 770 768 767 765 764 763 763 763 763 763 763 764 766 764 760 754 748 746 746 744 745 744 741 739 739 739 740 741 741 741 743 745 746 751 753 752 759 766 766 766 764 762 765 765 765 764 763 763 764 766 766 766 768 769 772 774 774 774 768 762 758 754 753 757 764 767 764 764 761 759 756 752 752 752 751 752 754 756 757 757 756 755 755 755
778 776 773 771 769 767 765 764 763 763 763 763 763 763 762 763 764 763 761 756 746 742 744 743 743 742 736 736 737 737 741 744 743 743 743 745 747 751 754 756 762 768 768 768 767 766 766 763 760 760 760 762 763 765 766 766 767 769 772 774 772 770 770 766 759 755 754 755 762 765 764 764 762 759 757 755 755 755 753 753 754 756 758 758 757 755 756 756
777 774 772 770 768 766 764 763 762 762 762 762 762 762 761 761 760 759 762 763 753 741 741 743 742 739 735 734 733 736 743 743 744 745 742 744 749 751 754 758 762 767 769 770 768 769 766 758 756 758 758 760 762 764 766 767 768 769 772 773 770 769 771 769 762 759 757 755 760 763 763 765 763 760 759 756 757 757 755 754 754 755 757 757 756 755 756 758
775 773 771 769 767 765 763 762 761 762 761 761 761 760 761 760 759 759 759 763 759 745 738 738 737 736 734 731 729 735 741 739 740 742 740 743 749 751 753 756 761 765 766 766 767 768 762 753 751 755 757 758 759 761 763 764 766 766 766 767 766 764 764 764 764 762 759 759 760 760 763 766 765 764 762 758 760 760 757 756 755 755 755 756 757 757 758 761
774 772 770 767 766 764 762 761 761 761 761 760 760 759 759 758 758 758 759 767 766 749 738 736 735 733 729 729 730 732 736 737 736 736 737 740 745 750 754 754 759 763 764 765 767 765 757 750 750 754 757 758 759 760 758 760 762 760 758 760 760 759 759 761 762 761 762 765 761 759 768 772 767 766 764 761 763 763 760 758 757 757 757 758 760 761 761 763
773 771 768 766 764 762 762 761 760 761 760 759 758 758 758 758 757 756 762 775 770 749 740 739 737 733 727 730 731 730 738 740 733 733 735 738 740 745 753 756 757 760 762 763 764 761 754 751 752 754 756 757 758 758 755 757 761 759 755 755 757 757 758 760 759 759 765 769 762 759 769 775 769 766 765 763 763 763 763 761 758 757 758 759 762 762 762 764
771 769 767 764 762 761 761 760 761 761 759 758 757 757 757 756 757 755 764 783 775 751 744 741 737 733 728 729 729 734 746 742 735 736 736 738 740 741 750 757 757 757 755 759 764 758 751 754 755 754 756 757 756 755 754 754 758 758 754 752 754 754 755 758 756 758 765 767 762 760 765 771 772 767 764 764 763 762 762 761 759 757 757 758 762 762 762 764
770 768 765 763 760 760 759 759 761 759 758 758 756 757 757 755 756 757 771 790 774 748 744 740 731 727 726 728 728 734 741 737 741 744 736 737 740 742 750 754 753 753 750 758 767 756 748 753 755 753 756 756 752 751 753 754 756 757 753 751 753 754 756 756 754 759 766 767 767 767 765 770 774 768 763 764 763 761 759 758 758 758 756 757 759 758 759 761
768 766 763 761 759 758 758 759 759 757 757 756 756 756 755 754 756 762 781 789 765 744 743 737 730 729 730 732 733 734 735 735 742 744 738 740 740 741 748 748 748 751 749 754 760 752 746 746 747 750 754 751 749 750 752 752 753 755 753 753 754 756 758 758 756 760 765 771 775 772 768 772 777 772 768 768 767 764 761 758 757 758 756 756 756 756 757 759
766 764 762 759 757 756 756 757 756 756 756 755 756 755 753 756 761 776 792 784 761 749 743 737 737 738 737 739 740 738 737 739 741 741 742 743 741 740 743 742 744 750 752 753 754 750 745 742 742 747 747 745 746 750 751 750 750 752 752 754 756 756 758 761 762 760 764 775 778 773 770 774 778 776 773 771 769 767 764 759 757 757 757 756 756 756 757 757
764 762 760 757 756 755 755 756 754 755 756 755 755 753 754 762 771 788 790 770 759 755 745 744 745 743 743 747 748 743 740 742 742 744 748 747 745 747 748 747 747 751 755 754 752 749 748 747 745 742 740 741 745 750 751 749 750 752 754 756 759 760 759 761 762 761 770 781 777 771 770 772 778 779 773 769 766 764 764 760 756 756 756 756 755 756 756 757
762 760 758 755 754 754 754 755 754 755 755 754 755 753 759 772 781 788 779 762 763 761 751 752 750 747 749 750 752 749 745 745 744 745 750 751 752 752 753 754 752 757 763 760 756 752 749 748 745 740 738 739 744 753 756 753 753 755 757 760 764 768 768 769 771 773 780 782 773 768 769 771 776 775 769 766 763 761 761 759 756 756 756 755 754 756 756 757
760 758 755 753 753 752 753 753 753 754 754 753 755 755 764 780 785 782 774 767 767 760 752 753 751 751 753 752 755 752 748 750 746 745 748 750 753 752 752 752 751 757 764 764 763 758 753 750 745 742 743 739 741 752 758 758 757 758 759 762 767 774 777 780 785 787 787 781 769 764 767 772 774 769 765 763 760 758 758 757 756 755 754 754 754 757 758 758
758 756 754 752 752 752 752 753 753 754 754 753 756 760 771 783 782 776 773 769 763 754 753 756 755 754 755 756 758 753 752 753 748 747 750 750 754 756 752 751 750 754 758 762 766 766 766 762 750 744 746 742 741 746 750 753 757 760 758 758 764 770 775 782 787 789 789 783 772 765 769 776 775 768 763 759 756 756 755 755 755 753 752 753 755 757 759 759
757 755 753 752 752 752 752 753 753 753 754 754 759 768 777 781 779 775 770 764 760 756 756 757 757 760 760 758 757 753 754 756 751 750 753 755 758 758 754 751 750 752 756 763 766 766 770 764 748 741 742 741 742 743 743 748 757 760 757 758 763 762 767 778 783 783 783 783 779 774 773 772 769 765 759 756 755 754 753 753 754 754 754 755 757 759 760 760
756 754 753 752 752 752 752 753 753 753 754 756 764 773 776 772 772 772 764 758 759 759 759 760 761 766 767 762 760 756 753 754 755 754 756 758 760 757 753 750 747 748 752 760 763 763 767 760 744 741 741 739 742 742 741 746 755 760 759 760 761 757 759 771 779 779 779 782 782 780 776 769 766 766 759 756 757 755 754 755 755 757 757 757 759 760 760 760
755 753 752 752 752 752 753 753 753 754 755 759 767 773 773 766 762 762 757 755 757 757 762 769 767 768 772 769 765 760 755 755 757 758 760 762 759 754 752 748 744 745 746 751 756 758 763 760 746 743 745 741 738 739 741 742 746 756 760 757 756 757 759 766 775 779 781 784 783 780 781 777 774 773 765 760 761 760 758 759 758 758 758 758 760 759 760 761
755 753 753 753 753 753 753 753 754 754 756 762 769 772 772 765 758 756 753 753 756 757 763 770 767 767 773 773 768 764 761 760 762 764 765 765 760 753 751 749 745 744 743 745 750 753 759 762 751 745 748 744 738 743 749 745 742 749 752 750 756 764 766 769 775 778 781 789 788 780 780 780 777 776 771 766 766 764 762 761 760 760 760 759 760 760 761 762
755 754 755 755 754 753 754 754 754 755 759 768 773 771 769 764 757 753 752 752 756 759 762 766 766 768 771 771 770 767 765 765 766 768 768 767 763 752 749 751 747 743 742 743 747 750 756 764 759 749 746 745 744 750 755 752 747 748 749 752 756 761 766 769 772 773 777 789 791 782 779 779 776 775 773 770 768 765 765 764 762 761 761 760 762 763 764 764
756 756 758 756 754 754 754 754 755 758 764 771 774 769 766 763 755 749 749 750 753 755 759 763 766 768 768 768 769 768 767 767 767 768 768 767 764 754 747 750 749 745 742 742 746 750 755 763 763 753 748 750 751 751 751 749 748 750 754 757 758 761 765 766 770 772 773 780 787 785 784 781 774 773 773 771 769 766 765 765 763 763 762 762 764 766 766 766
757 759 760 756 754 755 754 755 761 767 769 772 773 769 764 760 754 749 747 748 750 751 753 758 763 766 766 767 769 768 767 767 766 768 768 766 765 760 750 746 749 748 745 743 745 749 754 760 763 758 755 754 749 743 742 743 743 746 750 752 755 760 763 766 774 777 773 775 780 783 786 782 773 771 772 771 768 766 765 764 764 764 764 765 766 767 768 768
759 762 761 756 755 755 755 760 769 774 772 769 768 766 760 756 754 752 748 747 749 749 749 755 760 764 765 766 767 768 767 766 767 768 767 764 763 760 750 744 746 748 747 747 746 746 749 756 760 758 753 748 744 741 741 741 741 744 747 751 754 756 756 761 770 774 776 780 779 779 783 780 773 771 771 770 769 766 765 765 765 766 766 766 768 768 769 769
761 762 759 756 756 755 758 766 772 773 771 766 764 762 758 756 755 752 750 750 751 751 751 756 759 760 762 764 765 768 767 766 767 766 765 765 760 752 747 745 745 747 746 747 747 744 748 758 762 756 749 743 740 741 741 740 742 744 748 751 753 754 753 755 761 765 773 781 778 778 783 779 772 771 770 770 769 766 766 767 767 768 768 768 769 770 771 771
764 764 759 757 756 755 762 771 774 774 771 768 765 761 756 756 755 753 754 754 753 754 755 758 760 759 761 763 763 765 766 766 767 765 765 766 758 747 745 746 746 746 745 746 746 743 750 763 765 763 762 756 751 751 748 745 746 748 751 751 751 753 754 755 759 761 769 781 778 775 782 781 773 772 771 769 769 769 769 769 769 770 771 771 771 772 773 774
765 765 763 759 756 758 764 770 772 774 774 772 769 764 760 757 754 753 755 755 754 756 757 759 759 758 759 762 763 764 765 765 767 765 765 765 757 746 744 745 745 745 742 741 741 740 750 763 765 767 774 774 771 768 763 757 753 752 753 752 752 754 751 753 759 759 766 782 781 772 777 781 776 773 773 771 771 772 772 772 772 773 773 774 774 775 776 776
764 765 765 762 759 761 766 769 770 772 775 776 772 768 765 762 757 753 753 755 755 755 757 758 758 758 761 763 764 765 765 765 767 766 764 764 757 749 746 744 745 744 740 738 740 742 752 762 764 765 769 771 770 767 764 763 760 756 755 753 753 754 751 751 755 756 762 777 781 775 777 780 777 775 774 773 773 774 775 775 775 776 776 777 778 778 779 779
765 766 767 766 765 766 768 771 772 772 775 777 773 769 767 765 762 758 754 755 756 755 757 760 759 761 764 764 766 768 767 766 767 765 764 764 759 752 747 744 745 744 740 739 740 743 752 760 763 764 765 767 769 766 763 762 762 762 762 757 753 753 752 750 752 756 760 765 771 778 779 777 777 775 774 774 774 774 776 776 777 778 779 779 780 780 780 781
767 768 768 767 768 769 770 771 773 774 775 776 774 771 769 767 766 763 758 756 756 756 759 763 763 764 765 765 766 768 768 768 768 765 764 764 762 757 750 745 745 744 742 742 742 745 752 759 763 763 762 764 768 766 762 759 760 764 767 762 756 754 752 750 754 762 760 754 760 773 778 776 775 774 773 773 773 774 776 777 777 778 778 779 780 781 782 782
767 768 769 768 768 769 771 771 773 773 774 775 773 771 769 767 766 764 761 760 760 759 761 765 764 763 765 765 765 768 769 770 771 769 764 764 764 763 759 753 748 746 745 746 747 750 754 759 763 763 759 759 763 764 761 759 760 763 766 765 761 760 758 756 760 765 763 760 765 772 775 775 773 772 773 772 772 774 776 777 777 778 779 780 781 783 784 784
766 766 767 768 768 770 772 772 772 772 772 774 773 769 768 767 765 763 761 762 764 763 762 764 764 763 765 765 764 765 765 765 767 766 763 764 764 763 762 759 754 750 748 749 751 752 754 761 765 763 760 760 761 761 760 761 762 763 764 764 762 762 763 764 765 767 766 770 773 772 773 776 772 770 772 772 772 775 777 779 780 780 781 781 783 785 786 786
766 765 765 765 767 770 772 772 774 773 771 771 771 767 766 766 764 763 761 760 762 762 761 762 762 763 765 765 763 761 758 758 759 757 756 759 759 758 757 756 756 755 754 754 755 753 755 762 764 762 763 765 764 764 762 760 761 761 761 765 766 765 765 766 766 766 765 769 774 773 773 775 773 771 773 774 775 777 779 781 782 783 783 783 785 787 788 788
766 766 765 765 766 771 772 772 775 774 769 768 769 766 765 764 763 765 764 760 759 759 759 761 761 762 764 763 760 756 754 754 753 751 751 752 753 753 753 753 755 757 758 758 758 760 761 762 763 766 768 768 769 768 762 760 765 766 765 769 772 769 765 764 765 764 761 764 769 769 769 770 771 771 774 776 777 779 781 782 783 785 786 786 787 788 789 790